DW0307 Weather Reports


Display with metric or nautical units.
time (UTC)temp
F
wind
direction
speed
MPH
gust
MPH
rain 1hr
in
rain 24hr
in
rain mn
in
humidity
%
barometer
mb
20260906123049 70 235 7.0 16.0 0.00 0.00 0.00 38 1024.7
20260906121607 70 296 7.0 13.0 0.00 0.00 0.00 35 1024.6
20260906120054 70 236 4.0 11.0 0.00 0.00 0.00 34 1024.6
20260906114604 68 103 5.0 13.0 0.00 0.00 0.00 37 1024.6
20260906113103 67 285 4.0 12.0 0.00 0.00 0.00 36 1024.6
20260906111625 69 343 7.0 19.0 0.00 0.00 0.00 34 1024.5
20260906110050 68 137 5.0 9.0 0.00 0.00 0.00 38 1024.4
20260906104548 67 340 4.0 18.0 0.00 0.00 0.00 35 1024.4
20260906103053 68 270 9.0 21.0 0.00 0.00 0.00 37 1024.2
20260906101551 67 299 9.0 18.0 0.00 0.00 0.00 37 1024.1
20260906100049 67 251 11.0 19.0 0.00 0.00 0.00 38 1024.1
20260906094558 67 247 15.0 23.0 0.00 0.00 0.00 48 1024.1
20260906093053 66 319 12.0 21.0 0.00 0.00 0.00 39 1024.0
20260906091552 66 289 10.0 23.0 0.00 0.00 0.00 40 1023.9
20260906090051 65 347 11.0 24.0 0.00 0.00 0.00 40 1024.0
20260906084557 64 304 17.0 26.0 0.00 0.00 0.00 44 1024.0
20260906083054 63 37 12.0 24.0 0.00 0.00 0.00 42 1023.8
20260906081556 64 312 19.0 35.0 0.00 0.00 0.00 43 1023.7
20260906080111 63 320 12.0 23.0 0.00 0.00 0.00 45 1023.4
20260906074559 63 292 16.0 30.0 0.00 0.00 0.00 45 1023.3
20260906073054 62 32 12.0 22.0 0.00 0.00 0.00 45 1022.9
20260906071559 62 331 15.0 27.0 0.00 0.00 0.00 46 1023.1
20260906070059 62 263 10.0 23.0 0.00 0.00 0.00 50 1023.0
20260906064555 62 329 13.0 21.0 0.00 0.00 0.00 47 1023.1
20260906063052 62 272 13.0 25.0 0.00 0.00 0.00 51 1022.9
20260906061606 61 296 13.0 22.0 0.00 0.00 0.00 52 1022.7
20260906060150 60 229 14.0 31.0 0.00 0.00 0.00 57 1022.4
20260906054554 59 259 10.0 23.0 0.00 0.00 0.00 58 1022.4
20260906053100 59 207 9.0 17.0 0.00 0.00 0.00 60 1022.3
20260906051553 57 234 0.0 15.0 0.00 0.00 0.00 64 1022.3
20260906050110 56 214 9.0 17.0 0.00 0.00 0.00 67 1022.2
20260906044559 55 273 3.0 10.0 0.00 0.00 0.00 69 1022.0
20260906043100 53 255 1.0 7.0 0.00 0.00 0.00 70 1021.8
20260906041550 53 238 6.0 13.0 0.00 0.00 0.00 71 1021.8
20260906040052 53 240 10.0 16.0 0.00 0.00 0.00 71 1021.6
20260906034601 54 249 9.0 21.0 0.00 0.00 0.00 70 1021.5
20260906033056 54 219 12.0 18.0 0.00 0.00 0.00 70 1021.4
20260906031613 55 243 13.0 21.0 0.00 0.00 0.00 70 1021.1
20260906030106 55 250 11.0 16.0 0.00 0.00 0.00 69 1020.9
20260906024603 55 269 11.0 16.0 0.00 0.00 0.00 68 1021.1
20260906023112 55 153 3.0 9.0 0.00 0.00 0.00 68 1020.9
20260906021601 55 201 6.0 10.0 0.00 0.00 0.00 69 1020.9
20260906020101 56 129 3.0 8.0 0.00 0.00 0.00 69 1020.9
20260906014554 55 128 2.0 6.0 0.00 0.00 0.00 70 1021.1
20260906013050 56 102 5.0 7.0 0.00 0.00 0.00 69 1021.1
20260906011553 56 0 2.0 7.0 0.00 0.00 0.00 68 1020.9
20260906004603 56 69 2.0 9.0 0.00 0.00 0.00 67 1021.0
20260906003105 57 118 3.0 11.0 0.00 0.00 0.00 66 1020.8
20260906001551 58 28 5.0 11.0 0.00 0.00 0.00 60 1020.8
20260906000108 58 76 5.0 11.0 0.00 0.00 0.00 56 1020.8
20260905234556 57 332 2.0 9.0 0.00 0.00 0.00 58 1020.6
20260905233106 58 248 0.0 4.0 0.00 0.00 0.00 55 1020.5
20260905231618 58 118 1.0 10.0 0.00 0.00 0.00 55 1020.6
20260905230104 57 132 4.0 8.0 0.00 0.00 0.00 56 1020.3
20260905224604 60 0 0.0 7.0 0.00 0.00 0.00 52 1020.3
20260905223105 61 0 3.0 15.0 0.00 0.00 0.00 49 1020.2
20260905221602 61 232 5.0 18.0 0.00 0.00 0.00 50 1020.3
20260905220056 61 246 1.0 15.0 0.00 0.00 0.00 52 1020.3
20260905214602 60 223 7.0 15.0 0.00 0.00 0.00 57 1020.1
20260905213104 61 221 12.0 21.0 0.00 0.00 0.00 58 1020.0
20260905211552 61 213 7.0 15.0 0.00 0.00 0.00 58 1020.1
20260905210103 62 227 7.0 16.0 0.00 0.00 0.00 55 1020.0
20260905204558 61 252 8.0 14.0 0.00 0.00 0.00 53 1020.0
20260905203053 61 227 6.0 10.0 0.00 0.00 0.00 56 1020.2
20260905201552 60 251 6.0 13.0 0.00 0.00 0.00 58 1020.3
20260905200100 61 225 4.0 11.0 0.00 0.00 0.00 60 1020.1
20260905194556 62 219 11.0 26.0 0.00 0.00 0.00 55 1020.0
20260905193051 60 263 7.0 10.0 0.00 0.00 0.00 55 1019.9
20260905191600 57 290 6.0 13.0 0.00 0.00 0.00 65 1020.0
20260905184602 58 245 5.0 9.0 0.00 0.00 0.00 64 1019.9
20260905183053 56 183 3.0 6.0 0.00 0.00 0.00 68 1019.6
20260905181607 56 313 1.0 4.0 0.00 0.00 0.00 68 1019.5
20260905180115 57 257 5.0 10.0 0.00 0.00 0.00 67 1019.2
20260905174555 58 27 5.0 12.0 0.00 0.00 0.00 65 1018.8
20260905173112 60 231 4.0 11.0 0.00 0.00 0.00 61 1018.4
20260905171554 61 263 11.0 19.0 0.00 0.00 0.00 59 1018.2
20260905170049 63 248 13.0 21.0 0.00 0.00 0.00 57 1018.2
20260905164602 64 238 14.0 22.0 0.00 0.00 0.00 55 1018.0
20260905163102 64 258 16.0 24.0 0.00 0.00 0.00 54 1017.9
20260905161601 65 260 14.0 25.0 0.00 0.00 0.00 54 1017.8
20260905160100 66 246 19.0 27.0 0.00 0.00 0.00 52 1017.8
20260905154605 67 250 17.0 26.0 0.00 0.00 0.00 51 1017.8
20260905153047 67 257 19.0 28.0 0.00 0.00 0.00 50 1017.6
20260905151559 68 252 20.0 29.0 0.00 0.00 0.00 50 1017.6
20260905150055 69 250 19.0 28.0 0.00 0.00 0.00 49 1017.6
20260905144550 69 232 19.0 27.0 0.00 0.00 0.00 47 1017.8
20260905143102 69 250 17.0 29.0 0.00 0.00 0.00 52 1017.7
20260905141559 69 250 17.0 26.0 0.00 0.00 0.00 52 1017.9
20260905140100 68 249 18.0 31.0 0.00 0.00 0.00 54 1017.7
20260905134558 70 252 18.0 25.0 0.00 0.00 0.00 51 1017.8
20260905133059 69 269 17.0 29.0 0.00 0.00 0.00 52 1017.8
20260905131555 69 267 19.0 25.0 0.00 0.00 0.00 53 1017.7
20260905130054 70 234 13.0 21.0 0.00 0.00 0.00 53 1017.6
20260905124601 71 246 12.0 19.0 0.00 0.00 0.00 54 1017.5